Weather History for Nouasseur, Morocco

Change the Weather History Date:

Friday, March 21, 2014

  Actual Average Record
Temperature  
Mean Temperature 54 °F -  
Max Temperature 67 °F 70 °F 87 °F (2001)
Min Temperature 42 °F 49 °F 39 °F (2011)
Degree Days  
Heating Degree Days 10    
Growing Degree Days 4 (Base 50)    
Moisture  
Dew Point 45 °F    
Average Humidity 70    
Maximum Humidity 93    
Minimum Humidity 37    
Precipitation  
Precipitation 0.00 in - - ()
Sea Level Pressure  
Sea Level Pressure 30.19 in    
Wind  
Wind Speed 6 mph ()    
Max Wind Speed 16 mph    
Max Gust Speed -    
Visibility 5.9 miles    
Events      
Averages and records for this station are not official NWS values.
T = Trace of Precipitation, MM = Missing Value Source: Averaged Metar Reports

Daily Weather History Graph

Daily Weather History Graph

Search for Another Location

Airport:

Trip Planner

Search our weather history database for the weather conditions in past years. The results will help you decide how hot, cold, wet, or windy it might be!

Date:

Astronomy

Mar. 21, 2014 Rise Set
Actual Time 6:33 AM WET 6:42 PM WET
Civil Twilight 6:08 AM WET 7:07 PM WET
Nautical Twilight 5:39 AM WET 7:36 PM WET
Astronomical Twilight 5:10 AM WET 8:05 PM WET
Moon 11:35 PM WET (3/21) 9:27 AM WET (3/21)
Length of Visible Light 12h 59m
Length of Day
12h 09m
Waning Gibbous, 77% of the Moon is Illuminated
Mar 21
Waning Gibbous
Mar 24
Last Quarter
Mar 30
New
Apr 7
First Quarter
Apr 15
Full

Hourly Weather History & Observations

Time (WET) Temp. Windchill Dew Point Humidity Pressure Visibility Wind Dir Wind Speed Gust Speed Precip Events Conditions
12:00 AM 53.6 °F - 44.6 °F 72% 30.21 in 5.0 mi North 5.8 mph - N/A   Scattered Clouds
12:30 AM 48.2 °F - 41.0 °F 76% 30.21 in 5.0 mi SSE 5.8 mph - N/A   Scattered Clouds
1:00 AM 46.4 °F 42.9 °F 41.0 °F 81% 30.21 in 5.0 mi SE 6.9 mph - N/A   Scattered Clouds
1:30 AM 46.4 °F 44.3 °F 41.0 °F 81% 30.21 in 6.2 mi ESE 4.6 mph - N/A   Scattered Clouds
2:00 AM 44.6 °F 42.2 °F 39.2 °F 81% 30.21 in 5.0 mi ESE 4.6 mph - N/A   Scattered Clouds
2:30 AM 42.8 °F 39.3 °F 39.2 °F 87% 30.21 in 6.2 mi East 5.8 mph - N/A   Scattered Clouds
3:00 AM 43 °F - 40 °F 84% 30.23 in 5 mi East 5.8 mph - -   Partly Cloudy
3:00 AM 42.8 °F 39.3 °F 39.2 °F 87% 30.18 in 5.0 mi East 5.8 mph - N/A   Scattered Clouds
3:30 AM 42.8 °F 39.3 °F 39.2 °F 87% 30.18 in 6.2 mi East 5.8 mph - N/A   Scattered Clouds
4:00 AM 42.8 °F 41.1 °F 39.2 °F 87% 30.18 in 6.2 mi ESE 3.5 mph - N/A   Scattered Clouds
4:30 AM 42.8 °F - 39.2 °F 87% 30.18 in 6.2 mi SE 1.2 mph - N/A   Unknown
5:00 AM 42.8 °F - 39.2 °F 87% 30.18 in 5.0 mi SE 2.3 mph - N/A   Scattered Clouds
5:30 AM 42.8 °F 41.1 °F 39.2 °F 87% 30.18 in 6.2 mi SSE 3.5 mph - N/A   Scattered Clouds
5:46 AM 42 °F - 38 °F 82% 30.22 in 5 mi SSE 1.2 mph - -   Partly Cloudy
6:00 AM 42.8 °F - 39.2 °F 87% 30.18 in 5.0 mi SSE 1.2 mph - N/A   Scattered Clouds
6:30 AM 42.8 °F 41.1 °F 39.2 °F 87% 30.18 in 5.0 mi ENE 3.5 mph - N/A   Partly Cloudy
7:00 AM 42.8 °F - 39.2 °F 87% 30.21 in 6.2 mi Calm Calm - N/A   Partly Cloudy
7:30 AM 42.8 °F - 39.2 °F 87% 30.21 in 5.0 mi SE 2.3 mph - N/A   Partly Cloudy
8:00 AM 44.6 °F 43.1 °F 42.8 °F 93% 30.21 in 5.0 mi SSE 3.5 mph - N/A   Partly Cloudy
8:30 AM 51.8 °F - 48.2 °F 88% 30.21 in 6.2 mi ENE 3.5 mph - N/A   Partly Cloudy
9:00 AM 56 °F - 50 °F 73% 30.23 in 6 mi ENE 6.9 mph - -  
9:00 AM 57.2 °F - 50.0 °F 77% 30.21 in - ENE 6.9 mph - N/A   Clear
9:30 AM 59.0 °F - 48.2 °F 67% 30.24 in - NE 9.2 mph - N/A   Clear
10:00 AM 60.8 °F - 46.4 °F 59% 30.24 in - ENE 9.2 mph - N/A   Clear
10:30 AM 62.6 °F - 44.6 °F 52% 30.24 in - NE 6.9 mph - N/A   Clear
11:00 AM 64.4 °F - 44.6 °F 49% 30.24 in - NE 6.9 mph - N/A   Clear
11:30 AM 64.4 °F - 44.6 °F 49% 30.21 in - NNE 6.9 mph - N/A   Clear
12:00 PM 65 °F - 45 °F 37% 30.21 in 6 mi NE 9.2 mph - -  
12:00 PM 66.2 °F - 44.6 °F 46% 30.21 in - NE 9.2 mph - N/A   Clear
12:30 PM 66.2 °F - 44.6 °F 46% 30.18 in 6.2 mi North 8.1 mph - N/A   Partly Cloudy
1:00 PM 66.2 °F - 46.4 °F 49% 30.18 in 6.2 mi North 12.7 mph - N/A   Partly Cloudy
1:30 PM 66.2 °F - 46.4 °F 49% 30.15 in 6.2 mi NNE 10.4 mph - N/A   Partly Cloudy
2:00 PM 66.2 °F - 48.2 °F 52% 30.15 in 6.2 mi NNE 12.7 mph - N/A   Partly Cloudy
2:30 PM 66.2 °F - 48.2 °F 52% 30.15 in 6.2 mi NNE 12.7 mph - N/A   Partly Cloudy
3:00 PM 66 °F - 48 °F 42% 30.14 in 6 mi NNE 13.8 mph - -   Scattered Clouds
3:00 PM 66.2 °F - 48.2 °F 52% 30.12 in 6.2 mi NNE 13.8 mph - N/A   Partly Cloudy
3:30 PM 66.2 °F - 48.2 °F 52% 30.12 in 6.2 mi North 15.0 mph - N/A   Partly Cloudy
4:00 PM 64.4 °F - 48.2 °F 56% 30.12 in 6.2 mi North 16.1 mph - N/A   Partly Cloudy
4:30 PM 64.4 °F - 48.2 °F 56% 30.12 in 6.2 mi North 16.1 mph - N/A   Partly Cloudy
5:00 PM 62.6 °F - 48.2 °F 59% 30.12 in 6.2 mi North 16.1 mph - N/A   Partly Cloudy
5:30 PM 62.6 °F - 48.2 °F 59% 30.12 in 6.2 mi North 16.1 mph - N/A   Partly Cloudy
6:00 PM 61 °F - 48 °F 52% 30.14 in 6 mi North 16.1 mph - -   Scattered Clouds
6:00 PM 60.8 °F - 48.2 °F 63% 30.12 in 6.2 mi North 16.1 mph - N/A   Partly Cloudy
6:30 PM 59.0 °F - 48.2 °F 67% 30.15 in 6.2 mi North 15.0 mph - N/A   Partly Cloudy
7:00 PM 59.0 °F - 48.2 °F 67% 30.15 in 6.2 mi North 11.5 mph - N/A   Partly Cloudy
7:30 PM 57.2 °F - 48.2 °F 72% 30.18 in 6.2 mi North 10.4 mph - N/A   Partly Cloudy
8:00 PM 57.2 °F - 48.2 °F 72% 30.18 in 6.2 mi NNE 8.1 mph - N/A   Partly Cloudy
8:30 PM 55.4 °F - 48.2 °F 77% 30.18 in 6.2 mi NNE 6.9 mph - N/A   Partly Cloudy
9:00 PM 56 °F - 48 °F 66% 30.22 in 6 mi NNE 5.8 mph - -   Scattered Clouds
9:00 PM 55.4 °F - 48.2 °F 77% 30.21 in 6.2 mi NNE 5.8 mph - N/A   Partly Cloudy
9:30 PM 55.4 °F - 48.2 °F 77% 30.21 in 6.2 mi NNE 4.6 mph - N/A   Partly Cloudy
10:00 PM 55.4 °F - 48.2 °F 77% 30.21 in 6.2 mi NE 3.5 mph - N/A   Partly Cloudy
10:30 PM 53.6 °F - 46.4 °F 77% 30.21 in 6.2 mi ENE 3.5 mph - N/A   Unknown
11:00 PM 51.8 °F - 46.4 °F 82% 30.21 in 6.2 mi East 3.5 mph - N/A   Partly Cloudy
11:30 PM 50.0 °F - 46.4 °F 87% 30.21 in 5.0 mi ENE 3.5 mph - N/A   Partly Cloudy